PRIVATE WETTERSTATION BILLIGHEIM-ALLFELD                       ZURCK
Wetterdaten: Sonntag, 30.04.2017
Datum Zeit Temp. A. Temp. A. min Temp. A. max Feuchte A. Luftdruck Regen Wind Richtung Richtung Sonnenschein ET Solar Taupunkt Windchill Windben Empfang
30.04.2017 00:00 5,5 C 5,5 C 6,3 C 74 % 1015,3 hPa 0,0 l/m 0,0 km/h (0 Bft) O 90 0 min 0,025 mm 0 W/m 1,2 C 5,5 C 3,2 km/h (1 Bft) 100 %
30.04.2017 00:10 5,1 C 5,1 C 5,4 C 80 % 1015,2 hPa 0,0 l/m 0,0 km/h (0 Bft) O 90 0 min 0,000 mm 0 W/m 1,9 C 5,1 C 4,8 km/h (1 Bft) 99 %
30.04.2017 00:20 4,8 C 4,8 C 5,0 C 78 % 1015,1 hPa 0,0 l/m 0,0 km/h (0 Bft) O 90 0 min 0,000 mm 0 W/m 1,3 C 4,8 C 4,8 km/h (1 Bft) 100 %
30.04.2017 00:30 4,6 C 4,6 C 4,8 C 78 % 1015,2 hPa 0,0 l/m 0,0 km/h (0 Bft) O 90 0 min 0,000 mm 0 W/m 1,1 C 4,6 C 3,2 km/h (1 Bft) 100 %
30.04.2017 00:40 4,3 C 4,3 C 4,6 C 80 % 1015,1 hPa 0,0 l/m 0,0 km/h (0 Bft) O 90 0 min 0,000 mm 0 W/m 1,2 C 4,3 C 3,2 km/h (1 Bft) 100 %
30.04.2017 00:50 4,0 C 4,0 C 4,3 C 80 % 1015,0 hPa 0,0 l/m 0,0 km/h (0 Bft) O-SO 112 0 min 0,000 mm 0 W/m 0,9 C 4,0 C 3,2 km/h (1 Bft) 100 %
30.04.2017 01:00 3,8 C 3,8 C 4,0 C 82 % 1015,0 hPa 0,0 l/m 0,0 km/h (0 Bft) NO 45 0 min 0,025 mm 0 W/m 1,0 C 3,8 C 6,4 km/h (2 Bft) 99 %
30.04.2017 01:10 3,6 C 3,6 C 3,8 C 82 % 1014,9 hPa 0,0 l/m 0,0 km/h (0 Bft) N-NW 337 0 min 0,000 mm 0 W/m 0,8 C 3,6 C 4,8 km/h (1 Bft) 99 %
30.04.2017 01:20 3,4 C 3,4 C 3,6 C 83 % 1014,9 hPa 0,0 l/m 1,6 km/h (1 Bft) N-NW 337 0 min 0,000 mm 0 W/m 0,8 C 3,4 C 6,4 km/h (2 Bft) 98 %
30.04.2017 01:30 3,2 C 3,2 C 3,4 C 83 % 1014,8 hPa 0,0 l/m 0,0 km/h (0 Bft) N-NW 337 0 min 0,000 mm 0 W/m 0,6 C 3,2 C 3,2 km/h (1 Bft) 87 %
30.04.2017 01:40 3,1 C 3,1 C 3,2 C 84 % 1014,8 hPa 0,0 l/m 0,0 km/h (0 Bft) N 0 0 min 0,000 mm 0 W/m 0,7 C 3,1 C 0,0 km/h (0 Bft) 98 %
30.04.2017 01:50 2,9 C 2,9 C 3,1 C 84 % 1014,8 hPa 0,0 l/m 0,0 km/h (0 Bft) N 0 0 min 0,000 mm 0 W/m 0,5 C 2,9 C 0,0 km/h (0 Bft) 97 %
30.04.2017 02:00 2,8 C 2,8 C 2,9 C 85 % 1014,7 hPa 0,0 l/m 1,6 km/h (1 Bft) N-NW 337 0 min 0,000 mm 0 W/m 0,5 C 2,8 C 6,4 km/h (2 Bft) 98 %
30.04.2017 02:10 2,6 C 2,6 C 2,8 C 85 % 1014,7 hPa 0,0 l/m 0,0 km/h (0 Bft) N-NW 337 0 min 0,000 mm 0 W/m 0,3 C 2,6 C 4,8 km/h (1 Bft) 98 %
30.04.2017 02:20 2,4 C 2,4 C 2,6 C 86 % 1014,7 hPa 0,0 l/m 0,0 km/h (0 Bft) N-NW 337 0 min 0,000 mm 0 W/m 0,3 C 2,4 C 4,8 km/h (1 Bft) 96 %
30.04.2017 02:30 2,3 C 2,3 C 2,4 C 86 % 1014,8 hPa 0,0 l/m 0,0 km/h (0 Bft) N-NW 337 0 min 0,000 mm 0 W/m 0,2 C 2,3 C 6,4 km/h (2 Bft) 98 %
30.04.2017 02:40 2,3 C 2,3 C 2,3 C 87 % 1014,8 hPa 0,0 l/m 0,0 km/h (0 Bft) N 0 0 min 0,000 mm 0 W/m 0,4 C 2,3 C 0,0 km/h (0 Bft) 97 %
30.04.2017 02:50 2,3 C 2,3 C 2,3 C 87 % 1014,8 hPa 0,0 l/m 0,0 km/h (0 Bft) N 0 0 min 0,000 mm 0 W/m 0,4 C 2,3 C 0,0 km/h (0 Bft) 98 %
30.04.2017 03:00 2,4 C 2,3 C 2,4 C 87 % 1014,7 hPa 0,0 l/m 0,0 km/h (0 Bft) N 0 0 min 0,000 mm 0 W/m 0,5 C 2,4 C 0,0 km/h (0 Bft) 97 %
30.04.2017 03:10 2,7 C 2,4 C 2,7 C 87 % 1014,7 hPa 0,0 l/m 0,0 km/h (0 Bft) N 0 0 min 0,000 mm 0 W/m 0,8 C 2,7 C 0,0 km/h (0 Bft) 89 %
30.04.2017 03:20 2,8 C 2,7 C 2,8 C 87 % 1014,8 hPa 0,0 l/m 0,0 km/h (0 Bft) N 0 0 min 0,000 mm 0 W/m 0,9 C 2,8 C 0,0 km/h (0 Bft) 98 %
30.04.2017 03:30 2,8 C 2,8 C 2,9 C 86 % 1014,8 hPa 0,0 l/m 0,0 km/h (0 Bft) N 0 0 min 0,000 mm 0 W/m 0,7 C 2,8 C 0,0 km/h (0 Bft) 97 %
30.04.2017 03:40 2,8 C 2,8 C 2,8 C 86 % 1014,8 hPa 0,0 l/m 0,0 km/h (0 Bft) N 0 0 min 0,000 mm 0 W/m 0,7 C 2,8 C 0,0 km/h (0 Bft) 98 %
30.04.2017 03:50 2,7 C 2,7 C 2,8 C 87 % 1014,8 hPa 0,0 l/m 0,0 km/h (0 Bft) N 0 0 min 0,000 mm 0 W/m 0,8 C 2,7 C 0,0 km/h (0 Bft) 97 %
30.04.2017 04:00 2,7 C 2,7 C 2,8 C 87 % 1014,9 hPa 0,0 l/m 0,0 km/h (0 Bft) N-NW 337 0 min 0,000 mm 0 W/m 0,8 C 2,7 C 1,6 km/h (1 Bft) 98 %
30.04.2017 04:10 2,7 C 2,7 C 2,7 C 87 % 1014,9 hPa 0,0 l/m 0,0 km/h (0 Bft) N 0 0 min 0,000 mm 0 W/m 0,8 C 2,7 C 0,0 km/h (0 Bft) 97 %
30.04.2017 04:20 2,6 C 2,6 C 2,7 C 87 % 1015,0 hPa 0,0 l/m 0,0 km/h (0 Bft) N 0 0 min 0,000 mm 0 W/m 0,7 C 2,6 C 0,0 km/h (0 Bft) 98 %
30.04.2017 04:30 2,6 C 2,6 C 2,6 C 88 % 1015,0 hPa 0,0 l/m 0,0 km/h (0 Bft) N 0 0 min 0,000 mm 0 W/m 0,8 C 2,6 C 0,0 km/h (0 Bft) 97 %
30.04.2017 04:40 2,6 C 2,6 C 2,6 C 88 % 1015,0 hPa 0,0 l/m 0,0 km/h (0 Bft) N-NW 337 0 min 0,000 mm 0 W/m 0,8 C 2,6 C 1,6 km/h (1 Bft) 98 %
30.04.2017 04:50 2,6 C 2,6 C 2,6 C 88 % 1014,9 hPa 0,0 l/m 0,0 km/h (0 Bft) N 360 0 min 0,000 mm 0 W/m 0,8 C 2,6 C 4,8 km/h (1 Bft) 98 %
30.04.2017 05:00 2,6 C 2,6 C 2,6 C 87 % 1015,0 hPa 0,0 l/m 0,0 km/h (0 Bft) N 360 0 min 0,000 mm 0 W/m 0,7 C 2,6 C 4,8 km/h (1 Bft) 97 %
30.04.2017 05:10 2,3 C 2,3 C 2,6 C 87 % 1014,9 hPa 0,0 l/m 0,0 km/h (0 Bft) N 0 0 min 0,000 mm 0 W/m 0,4 C 2,3 C 0,0 km/h (0 Bft) 98 %
30.04.2017 05:20 2,1 C 2,1 C 2,3 C 88 % 1014,8 hPa 0,0 l/m 0,0 km/h (0 Bft) N 0 0 min 0,000 mm 0 W/m 0,3 C 2,1 C 0,0 km/h (0 Bft) 97 %
30.04.2017 05:30 1,9 C 1,9 C 2,1 C 88 % 1014,6 hPa 0,0 l/m 0,0 km/h (0 Bft) N 0 0 min 0,000 mm 0 W/m 0,1 C 1,9 C 0,0 km/h (0 Bft) 98 %
30.04.2017 05:40 1,8 C 1,8 C 1,9 C 88 % 1014,7 hPa 0,0 l/m 0,0 km/h (0 Bft) N 0 0 min 0,000 mm 0 W/m 0,0 C 1,8 C 0,0 km/h (0 Bft) 97 %
30.04.2017 05:50 1,7 C 1,7 C 1,8 C 89 % 1014,6 hPa 0,0 l/m 0,0 km/h (0 Bft) N 360 0 min 0,000 mm 0 W/m 0,1 C 1,7 C 1,6 km/h (1 Bft) 98 %
30.04.2017 06:00 1,7 C 1,7 C 1,7 C 89 % 1014,7 hPa 0,0 l/m 0,0 km/h (0 Bft) N 0 0 min 0,000 mm 0 W/m 0,1 C 1,7 C 0,0 km/h (0 Bft) 97 %
30.04.2017 06:10 1,7 C 1,7 C 1,7 C 89 % 1014,6 hPa 0,0 l/m 0,0 km/h (0 Bft) N 0 0 min 0,000 mm 5 W/m 0,1 C 1,7 C 0,0 km/h (0 Bft) 97 %
30.04.2017 06:20 1,8 C 1,7 C 1,8 C 89 % 1014,6 hPa 0,0 l/m 0,0 km/h (0 Bft) N 0 0 min 0,000 mm 9 W/m 0,2 C 1,8 C 0,0 km/h (0 Bft) 98 %
30.04.2017 06:30 2,0 C 1,8 C 2,0 C 90 % 1014,6 hPa 0,0 l/m 0,0 km/h (0 Bft) N 0 0 min 0,000 mm 12 W/m 0,5 C 2,0 C 0,0 km/h (0 Bft) 96 %
30.04.2017 06:40 2,2 C 2,0 C 2,2 C 90 % 1014,6 hPa 0,0 l/m 0,0 km/h (0 Bft) N-NO 22 0 min 0,000 mm 16 W/m 0,7 C 2,2 C 6,4 km/h (2 Bft) 98 %
30.04.2017 06:50 2,3 C 2,2 C 2,3 C 90 % 1014,6 hPa 0,0 l/m 0,0 km/h (0 Bft) N 360 0 min 0,000 mm 19 W/m 0,8 C 2,3 C 4,8 km/h (1 Bft) 98 %
30.04.2017 07:00 2,4 C 2,3 C 2,4 C 89 % 1014,7 hPa 0,0 l/m 0,0 km/h (0 Bft) N 360 0 min 0,000 mm 23 W/m 0,8 C 2,4 C 3,2 km/h (1 Bft) 97 %
30.04.2017 07:10 2,6 C 2,4 C 2,6 C 89 % 1014,7 hPa 0,0 l/m 0,0 km/h (0 Bft) N 360 0 min 0,000 mm 26 W/m 1,0 C 2,6 C 3,2 km/h (1 Bft) 98 %
30.04.2017 07:20 2,6 C 2,6 C 2,6 C 89 % 1014,9 hPa 0,0 l/m 0,0 km/h (0 Bft) N 360 0 min 0,000 mm 47 W/m 1,0 C 2,6 C 4,8 km/h (1 Bft) 97 %
30.04.2017 07:30 2,8 C 2,7 C 2,8 C 89 % 1014,8 hPa 0,0 l/m 0,0 km/h (0 Bft) N 360 0 min 0,000 mm 35 W/m 1,2 C 2,8 C 1,6 km/h (1 Bft) 98 %
30.04.2017 07:40 3,1 C 2,8 C 3,1 C 89 % 1014,8 hPa 0,0 l/m 0,0 km/h (0 Bft) N-NO 22 0 min 0,000 mm 44 W/m 1,5 C 3,1 C 9,7 km/h (2 Bft) 97 %
30.04.2017 07:50 3,3 C 3,1 C 3,3 C 89 % 1014,8 hPa 0,0 l/m 0,0 km/h (0 Bft) N 0 0 min 0,000 mm 47 W/m 1,7 C 3,3 C 0,0 km/h (0 Bft) 98 %
30.04.2017 08:00 3,6 C 3,3 C 3,6 C 88 % 1014,7 hPa 0,0 l/m 0,0 km/h (0 Bft) N 360 0 min 0,025 mm 49 W/m 1,8 C 3,6 C 9,7 km/h (2 Bft) 97 %
30.04.2017 08:10 4,0 C 3,7 C 4,0 C 88 % 1014,7 hPa 0,0 l/m 1,6 km/h (1 Bft) O-NO 67 0 min 0,000 mm 62 W/m 2,2 C 4,0 C 17,7 km/h (3 Bft) 97 %
30.04.2017 08:20 4,6 C 4,0 C 4,6 C 86 % 1014,7 hPa 0,0 l/m 1,6 km/h (1 Bft) O 90 10 min 0,000 mm 227 W/m 2,5 C 4,6 C 9,7 km/h (2 Bft) 98 %
30.04.2017 08:30 5,6 C 4,6 C 5,6 C 85 % 1014,7 hPa 0,0 l/m 1,6 km/h (1 Bft) NO 45 10 min 0,000 mm 357 W/m 3,3 C 5,6 C 8,0 km/h (2 Bft) 98 %
30.04.2017 08:40 6,7 C 5,6 C 6,7 C 82 % 1014,6 hPa 0,0 l/m 0,0 km/h (0 Bft) N-NO 22 10 min 0,000 mm 396 W/m 3,8 C 6,7 C 8,0 km/h (2 Bft) 100 %
30.04.2017 08:50 7,8 C 6,7 C 7,8 C 80 % 1014,5 hPa 0,0 l/m 0,0 km/h (0 Bft) NO 45 10 min 0,000 mm 431 W/m 4,6 C 7,8 C 9,7 km/h (2 Bft) 100 %
30.04.2017 09:00 8,7 C 7,9 C 8,7 C 75 % 1014,4 hPa 0,0 l/m 1,6 km/h (1 Bft) O 90 10 min 0,127 mm 461 W/m 4,5 C 8,7 C 8,0 km/h (2 Bft) 100 %
30.04.2017 09:10 9,6 C 8,7 C 9,6 C 72 % 1014,3 hPa 0,0 l/m 3,2 km/h (1 Bft) O-SO 112 10 min 0,000 mm 492 W/m 4,8 C 9,6 C 16,1 km/h (3 Bft) 100 %
30.04.2017 09:20 10,1 C 9,6 C 10,1 C 68 % 1014,2 hPa 0,0 l/m 3,2 km/h (1 Bft) O-SO 112 10 min 0,000 mm 520 W/m 4,5 C 10,1 C 17,7 km/h (3 Bft) 100 %
30.04.2017 09:30 10,3 C 10,1 C 10,3 C 69 % 1014,2 hPa 0,0 l/m 3,2 km/h (1 Bft) O-SO 112 10 min 0,000 mm 548 W/m 4,9 C 10,3 C 16,1 km/h (3 Bft) 100 %
30.04.2017 09:40 11,2 C 10,3 C 11,2 C 65 % 1014,0 hPa 0,0 l/m 1,6 km/h (1 Bft) O-SO 112 10 min 0,000 mm 580 W/m 4,9 C 11,2 C 14,5 km/h (3 Bft) 98 %
30.04.2017 09:50 11,9 C 11,2 C 11,9 C 62 % 1013,9 hPa 0,0 l/m 3,2 km/h (1 Bft) O-SO 112 10 min 0,000 mm 610 W/m 4,9 C 11,9 C 19,3 km/h (3 Bft) 98 %
30.04.2017 10:00 12,3 C 11,9 C 12,3 C 61 % 1013,8 hPa 0,0 l/m 1,6 km/h (1 Bft) SO 135 10 min 0,279 mm 654 W/m 5,0 C 12,3 C 11,3 km/h (2 Bft) 97 %
30.04.2017 10:10 12,6 C 12,3 C 12,7 C 59 % 1013,5 hPa 0,0 l/m 4,8 km/h (1 Bft) SO 135 10 min 0,000 mm 654 W/m 4,8 C 12,6 C 19,3 km/h (3 Bft) 98 %
30.04.2017 10:20 12,7 C 12,6 C 12,7 C 58 % 1013,6 hPa 0,0 l/m 4,8 km/h (1 Bft) O-SO 112 10 min 0,000 mm 682 W/m 4,7 C 12,7 C 20,9 km/h (4 Bft) 98 %
30.04.2017 10:30 12,6 C 12,6 C 12,7 C 55 % 1013,4 hPa 0,0 l/m 9,7 km/h (2 Bft) O-SO 112 10 min 0,000 mm 710 W/m 3,8 C 10,6 C 33,8 km/h (5 Bft) 97 %
30.04.2017 10:40 12,9 C 12,6 C 12,9 C 54 % 1013,2 hPa 0,0 l/m 6,4 km/h (2 Bft) O 90 10 min 0,000 mm 715 W/m 3,8 C 12,9 C 20,9 km/h (4 Bft) 97 %
30.04.2017 10:50 13,3 C 12,9 C 13,3 C 54 % 1013,1 hPa 0,0 l/m 6,4 km/h (2 Bft) SO 135 10 min 0,000 mm 744 W/m 4,2 C 13,3 C 20,9 km/h (4 Bft) 98 %
30.04.2017 11:00 13,4 C 13,3 C 13,4 C 52 % 1013,0 hPa 0,0 l/m 8,0 km/h (2 Bft) O-SO 112 10 min 0,381 mm 770 W/m 3,7 C 12,4 C 24,1 km/h (4 Bft) 98 %
30.04.2017 11:10 13,8 C 13,4 C 13,8 C 51 % 1013,0 hPa 0,0 l/m 4,8 km/h (1 Bft) SO 135 10 min 0,000 mm 788 W/m 3,8 C 13,8 C 22,5 km/h (4 Bft) 97 %
30.04.2017 11:20 13,7 C 13,7 C 13,8 C 50 % 1012,9 hPa 0,0 l/m 9,7 km/h (2 Bft) SO 135 10 min 0,000 mm 807 W/m 3,5 C 11,8 C 33,8 km/h (5 Bft) 97 %
30.04.2017 11:30 13,4 C 13,4 C 13,7 C 50 % 1012,8 hPa 0,0 l/m 12,9 km/h (3 Bft) SO 135 10 min 0,000 mm 824 W/m 3,2 C 10,1 C 25,7 km/h (4 Bft) 98 %
30.04.2017 11:40 13,8 C 13,4 C 13,8 C 50 % 1012,7 hPa 0,0 l/m 6,4 km/h (2 Bft) SO 135 10 min 0,000 mm 830 W/m 3,6 C 13,8 C 29,0 km/h (5 Bft) 97 %
30.04.2017 11:50 14,4 C 13,8 C 14,4 C 51 % 1012,5 hPa 0,0 l/m 6,4 km/h (2 Bft) SO 135 10 min 0,000 mm 842 W/m 4,4 C 14,4 C 19,3 km/h (3 Bft) 98 %
30.04.2017 12:00 14,4 C 14,3 C 14,4 C 48 % 1012,4 hPa 0,0 l/m 9,7 km/h (2 Bft) SO 135 10 min 0,432 mm 858 W/m 3,5 C 12,6 C 24,1 km/h (4 Bft) 97 %
30.04.2017 12:10 14,4 C 14,4 C 14,6 C 46 % 1012,3 hPa 0,0 l/m 9,7 km/h (2 Bft) O-SO 112 10 min 0,000 mm 868 W/m 2,9 C 12,6 C 32,2 km/h (5 Bft) 89 %
30.04.2017 12:20 14,3 C 14,3 C 14,4 C 47 % 1012,2 hPa 0,0 l/m 9,7 km/h (2 Bft) O-SO 112 10 min 0,000 mm 874 W/m 3,1 C 12,5 C 29,0 km/h (5 Bft) 97 %
30.04.2017 12:30 14,8 C 14,3 C 14,8 C 46 % 1012,1 hPa 0,0 l/m 6,4 km/h (2 Bft) O 90 10 min 0,000 mm 895 W/m 3,3 C 14,8 C 24,1 km/h (4 Bft) 97 %
30.04.2017 12:50 15,1 C 14,3 C 15,2 C 45 % 1011,6 hPa 0,0 l/m 9,2 km/h (2 Bft) SO 133 20 min 0,000 mm 877 W/m 3,3 C 13,6 C 29,0 km/h (5 Bft) 99 %
30.04.2017 13:00 15,3 C 15,1 C 15,3 C 47 % 1011,5 hPa 0,0 l/m 9,0 km/h (2 Bft) O-NO 71 10 min 0,000 mm 886 W/m 4,1 C 13,9 C 25,7 km/h (4 Bft) 100 %
30.04.2017 13:10 15,3 C 15,3 C 15,4 C 44 % 1011,2 hPa 0,0 l/m 10,8 km/h (2 Bft) O 84 10 min 0,484 mm 896 W/m 3,1 C 13,1 C 29,0 km/h (5 Bft) 100 %
30.04.2017 13:20 15,7 C 15,3 C 15,7 C 47 % 1011,3 hPa 0,0 l/m 4,6 km/h (1 Bft) O-SO 110 10 min 0,000 mm 902 W/m 4,4 C 15,7 C 22,5 km/h (4 Bft) 100 %
30.04.2017 13:30 16,0 C 15,7 C 16,0 C 44 % 1011,2 hPa 0,0 l/m 5,8 km/h (2 Bft) O-SO 109 10 min 0,000 mm 900 W/m 3,8 C 16,0 C 20,9 km/h (4 Bft) 100 %
30.04.2017 13:40 15,8 C 15,8 C 16,0 C 42 % 1011,1 hPa 0,0 l/m 9,0 km/h (2 Bft) O 92 10 min 0,000 mm 891 W/m 2,9 C 14,5 C 24,1 km/h (4 Bft) 100 %
30.04.2017 13:50 16,2 C 15,8 C 16,2 C 47 % 1010,8 hPa 0,0 l/m 7,5 km/h (2 Bft) O-SO 118 10 min 0,000 mm 884 W/m 4,9 C 15,6 C 25,7 km/h (4 Bft) 100 %
30.04.2017 14:00 16,3 C 16,2 C 16,3 C 45 % 1010,8 hPa 0,0 l/m 6,3 km/h (2 Bft) SO 129 10 min 0,000 mm 877 W/m 4,3 C 16,3 C 22,5 km/h (4 Bft) 100 %
30.04.2017 14:10 16,1 C 16,1 C 16,3 C 43 % 1010,7 hPa 0,0 l/m 13,2 km/h (3 Bft) O-SO 119 10 min 0,533 mm 874 W/m 3,5 C 13,1 C 30,6 km/h (5 Bft) 99 %
30.04.2017 14:20 16,1 C 16,1 C 16,2 C 41 % 1010,6 hPa 0,0 l/m 11,9 km/h (2 Bft) SO 140 10 min 0,000 mm 870 W/m 2,8 C 13,6 C 25,7 km/h (4 Bft) 100 %
30.04.2017 14:30 16,4 C 16,1 C 16,4 C 41 % 1010,3 hPa 0,0 l/m 9,5 km/h (2 Bft) SO 144 10 min 0,000 mm 858 W/m 3,1 C 14,9 C 30,6 km/h (5 Bft) 99 %
30.04.2017 14:40 16,7 C 16,4 C 16,7 C 43 % 1010,3 hPa 0,0 l/m 8,3 km/h (2 Bft) SO 140 10 min 0,000 mm 851 W/m 4,1 C 15,7 C 24,1 km/h (4 Bft) 100 %
30.04.2017 14:50 17,0 C 16,7 C 17,1 C 40 % 1010,0 hPa 0,0 l/m 8,3 km/h (2 Bft) SO 144 10 min 0,000 mm 837 W/m 3,3 C 16,1 C 27,4 km/h (4 Bft) 100 %
30.04.2017 15:00 16,7 C 16,7 C 17,0 C 42 % 1010,0 hPa 0,0 l/m 12,7 km/h (3 Bft) S-SO 160 0 min 0,508 mm 79 W/m 3,7 C 14,0 C 37,0 km/h (5 Bft) 100 %
30.04.2017 15:10 16,9 C 16,7 C 16,9 C 40 % 1009,7 hPa 0,0 l/m 8,2 km/h (2 Bft) O-NO 57 0 min 0,000 mm 83 W/m 3,2 C 16,0 C 22,5 km/h (4 Bft) 100 %
30.04.2017 15:20 17,2 C 16,9 C 17,2 C 41 % 1009,5 hPa 0,0 l/m 6,3 km/h (2 Bft) O-NO 76 0 min 0,000 mm 77 W/m 3,8 C 17,2 C 22,5 km/h (4 Bft) 100 %
30.04.2017 15:30 17,1 C 17,1 C 17,3 C 43 % 1009,3 hPa 0,0 l/m 6,4 km/h (2 Bft) O-SO 117 0 min 0,000 mm 76 W/m 4,4 C 17,1 C 25,7 km/h (4 Bft) 100 %
30.04.2017 15:40 16,9 C 16,8 C 17,1 C 42 % 1009,3 hPa 0,0 l/m 7,5 km/h (2 Bft) O-NO 69 0 min 0,000 mm 86 W/m 3,9 C 16,3 C 25,7 km/h (4 Bft) 99 %
30.04.2017 15:50 17,1 C 16,9 C 17,1 C 41 % 1009,0 hPa 0,0 l/m 8,2 km/h (2 Bft) O-SO 107 0 min 0,000 mm 69 W/m 3,7 C 16,2 C 24,1 km/h (4 Bft) 100 %
30.04.2017 16:00 17,2 C 17,1 C 17,2 C 42 % 1008,8 hPa 0,0 l/m 4,0 km/h (1 Bft) O-SO 104 0 min 0,102 mm 69 W/m 4,2 C 17,2 C 19,3 km/h (3 Bft) 100 %
30.04.2017 16:10 17,2 C 17,2 C 17,3 C 41 % 1008,9 hPa 0,0 l/m 8,1 km/h (2 Bft) S 178 0 min 0,000 mm 70 W/m 3,8 C 16,4 C 29,0 km/h (5 Bft) 100 %
30.04.2017 16:20 17,2 C 17,2 C 17,2 C 39 % 1008,7 hPa 0,0 l/m 8,2 km/h (2 Bft) O-SO 123 0 min 0,000 mm 113 W/m 3,1 C 16,3 C 24,1 km/h (4 Bft) 100 %
30.04.2017 16:30 17,2 C 17,2 C 17,2 C 40 % 1008,6 hPa 0,0 l/m 6,7 km/h (2 Bft) S-SO 148 0 min 0,000 mm 65 W/m 3,5 C 17,1 C 24,1 km/h (4 Bft) 99 %
30.04.2017 16:40 17,0 C 17,0 C 17,2 C 41 % 1008,6 hPa 0,0 l/m 9,1 km/h (2 Bft) O-SO 108 0 min 0,000 mm 67 W/m 3,7 C 15,7 C 27,4 km/h (4 Bft) 100 %
30.04.2017 16:50 17,1 C 17,0 C 17,1 C 39 % 1008,4 hPa 0,0 l/m 7,5 km/h (2 Bft) O-NO 68 0 min 0,000 mm 62 W/m 3,0 C 16,5 C 27,4 km/h (4 Bft) 100 %
30.04.2017 17:00 17,2 C 17,1 C 17,2 C 41 % 1008,2 hPa 0,0 l/m 6,9 km/h (2 Bft) O 90 0 min 0,102 mm 62 W/m 3,8 C 17,0 C 25,7 km/h (4 Bft) 100 %
30.04.2017 17:10 17,3 C 17,2 C 17,3 C 40 % 1008,3 hPa 0,0 l/m 8,0 km/h (2 Bft) O-SO 123 0 min 0,000 mm 60 W/m 3,6 C 16,5 C 25,7 km/h (4 Bft) 100 %
30.04.2017 17:20 17,3 C 17,3 C 17,3 C 40 % 1008,0 hPa 0,0 l/m 5,6 km/h (1 Bft) SO 143 0 min 0,000 mm 56 W/m 3,6 C 17,3 C 24,1 km/h (4 Bft) 100 %
30.04.2017 17:30 17,3 C 17,3 C 17,4 C 40 % 1008,0 hPa 0,0 l/m 6,9 km/h (2 Bft) O-SO 119 0 min 0,000 mm 54 W/m 3,6 C 17,1 C 29,0 km/h (5 Bft) 100 %
30.04.2017 17:40 17,4 C 17,3 C 17,4 C 40 % 1007,7 hPa 0,0 l/m 2,9 km/h (1 Bft) O-SO 117 0 min 0,000 mm 54 W/m 3,7 C 17,4 C 20,9 km/h (4 Bft) 100 %
30.04.2017 17:50 17,2 C 17,2 C 17,4 C 38 % 1007,6 hPa 0,0 l/m 8,3 km/h (2 Bft) SO 134 0 min 0,000 mm 53 W/m 2,8 C 16,3 C 25,7 km/h (4 Bft) 100 %
30.04.2017 18:00 17,2 C 17,2 C 17,2 C 39 % 1007,4 hPa 0,0 l/m 3,6 km/h (1 Bft) O-SO 104 0 min 0,076 mm 51 W/m 3,1 C 17,2 C 22,5 km/h (4 Bft) 91 %
30.04.2017 18:10 17,1 C 17,1 C 17,2 C 40 % 1007,3 hPa 0,0 l/m 5,6 km/h (1 Bft) SO 129 0 min 0,000 mm 47 W/m 3,4 C 17,1 C 22,5 km/h (4 Bft) 100 %
30.04.2017 18:20 16,9 C 16,9 C 17,1 C 39 % 1007,1 hPa 0,0 l/m 5,9 km/h (2 Bft) SO 130 0 min 0,000 mm 49 W/m 2,9 C 16,9 C 25,7 km/h (4 Bft) 100 %
30.04.2017 18:30 16,7 C 16,7 C 16,9 C 40 % 1007,0 hPa 0,0 l/m 7,4 km/h (2 Bft) SO 132 0 min 0,000 mm 56 W/m 3,0 C 16,2 C 24,1 km/h (4 Bft) 99 %
30.04.2017 18:40 16,7 C 16,7 C 16,7 C 41 % 1006,9 hPa 0,0 l/m 5,6 km/h (1 Bft) O-SO 103 0 min 0,000 mm 60 W/m 3,4 C 16,7 C 25,7 km/h (4 Bft) 100 %
30.04.2017 18:50 16,7 C 16,7 C 16,8 C 41 % 1006,8 hPa 0,0 l/m 5,0 km/h (1 Bft) O-NO 73 0 min 0,000 mm 58 W/m 3,4 C 16,7 C 19,3 km/h (3 Bft) 100 %
30.04.2017 19:00 16,5 C 16,5 C 16,7 C 43 % 1006,8 hPa 0,0 l/m 3,4 km/h (1 Bft) SO 132 0 min 0,076 mm 47 W/m 3,9 C 16,5 C 17,7 km/h (3 Bft) 100 %
30.04.2017 19:10 16,3 C 16,3 C 16,5 C 41 % 1006,6 hPa 0,0 l/m 5,5 km/h (1 Bft) O-SO 123 0 min 0,000 mm 37 W/m 3,0 C 16,3 C 24,1 km/h (4 Bft) 100 %
30.04.2017 19:20 16,0 C 16,0 C 16,3 C 42 % 1006,6 hPa 0,0 l/m 3,8 km/h (1 Bft) O 93 0 min 0,000 mm 32 W/m 3,1 C 16,0 C 24,1 km/h (4 Bft) 100 %
30.04.2017 19:30 15,7 C 15,7 C 16,0 C 42 % 1006,6 hPa 0,0 l/m 1,7 km/h (1 Bft) O-SO 110 0 min 0,000 mm 26 W/m 2,8 C 15,7 C 12,9 km/h (3 Bft) 100 %
30.04.2017 19:40 15,4 C 15,4 C 15,7 C 42 % 1006,5 hPa 0,0 l/m 2,9 km/h (1 Bft) O-SO 122 0 min 0,000 mm 21 W/m 2,6 C 15,4 C 16,1 km/h (3 Bft) 98 %
30.04.2017 19:50 15,1 C 15,1 C 15,4 C 43 % 1006,5 hPa 0,0 l/m 4,1 km/h (1 Bft) O 96 0 min 0,000 mm 19 W/m 2,6 C 15,1 C 17,7 km/h (3 Bft) 100 %
30.04.2017 20:00 15,1 C 15,1 C 15,1 C 43 % 1006,5 hPa 0,0 l/m 3,5 km/h (1 Bft) O-SO 106 0 min 0,051 mm 16 W/m 2,6 C 15,1 C 11,3 km/h (2 Bft) 100 %
30.04.2017 20:10 14,7 C 14,7 C 15,1 C 46 % 1006,6 hPa 0,0 l/m 0,0 km/h (0 Bft) O-SO 102 0 min 0,000 mm 14 W/m 3,2 C 14,7 C 1,6 km/h (1 Bft) 100 %
30.04.2017 20:20 14,3 C 14,3 C 14,7 C 46 % 1006,5 hPa 0,0 l/m 0,0 km/h (0 Bft) SO 129 0 min 0,000 mm 9 W/m 2,8 C 14,3 C 1,6 km/h (1 Bft) 100 %
30.04.2017 20:30 13,9 C 13,9 C 14,3 C 46 % 1006,6 hPa 0,0 l/m 0,8 km/h (0 Bft) O-SO 106 0 min 0,000 mm 0 W/m 2,5 C 13,9 C 9,7 km/h (2 Bft) 100 %
30.04.2017 20:40 13,7 C 13,7 C 13,9 C 48 % 1006,6 hPa 0,0 l/m 0,5 km/h (0 Bft) O 96 0 min 0,000 mm 0 W/m 2,9 C 13,7 C 8,0 km/h (2 Bft) 100 %
30.04.2017 20:50 13,5 C 13,5 C 13,7 C 48 % 1006,6 hPa 0,0 l/m 0,4 km/h (0 Bft) O-SO 106 0 min 0,000 mm 0 W/m 2,7 C 13,5 C 8,0 km/h (2 Bft) 100 %
30.04.2017 21:00 13,3 C 13,3 C 13,5 C 49 % 1006,7 hPa 0,0 l/m 0,7 km/h (0 Bft) SO 140 0 min 0,025 mm 0 W/m 2,8 C 13,3 C 6,4 km/h (2 Bft) 100 %
30.04.2017 21:10 13,1 C 13,1 C 13,3 C 49 % 1006,8 hPa 0,0 l/m 0,0 km/h (0 Bft) N 0 0 min 0,000 mm 0 W/m 2,6 C 13,1 C 0,0 km/h (0 Bft) 100 %
30.04.2017 21:20 12,8 C 12,8 C 13,1 C 50 % 1007,0 hPa 0,0 l/m 0,0 km/h (0 Bft) O-NO 67 0 min 0,000 mm 0 W/m 2,6 C 12,8 C 8,0 km/h (2 Bft) 99 %
30.04.2017 21:30 12,7 C 12,7 C 12,8 C 51 % 1006,9 hPa 0,0 l/m 0,0 km/h (0 Bft) O-NO 67 0 min 0,000 mm 0 W/m 2,8 C 12,7 C 6,4 km/h (2 Bft) 97 %
30.04.2017 21:40 12,6 C 12,6 C 12,7 C 51 % 1007,0 hPa 0,0 l/m 0,0 km/h (0 Bft) O 90 0 min 0,000 mm 0 W/m 2,7 C 12,6 C 4,8 km/h (1 Bft) 98 %
30.04.2017 21:50 12,4 C 12,4 C 12,6 C 52 % 1006,9 hPa 0,0 l/m 0,0 km/h (0 Bft) N 0 0 min 0,000 mm 0 W/m 2,8 C 12,4 C 0,0 km/h (0 Bft) 97 %
30.04.2017 22:00 12,2 C 12,2 C 12,4 C 53 % 1006,7 hPa 0,0 l/m 0,0 km/h (0 Bft) O 90 0 min 0,025 mm 0 W/m 2,9 C 12,2 C 1,6 km/h (1 Bft) 98 %
30.04.2017 22:10 12,1 C 12,1 C 12,2 C 54 % 1006,7 hPa 0,0 l/m 0,0 km/h (0 Bft) O 90 0 min 0,000 mm 0 W/m 3,1 C 12,1 C 4,8 km/h (1 Bft) 98 %
30.04.2017 22:20 11,9 C 11,9 C 12,1 C 56 % 1006,8 hPa 0,0 l/m 0,0 km/h (0 Bft) N-NO 22 0 min 0,000 mm 0 W/m 3,4 C 11,9 C 8,0 km/h (2 Bft) 97 %
30.04.2017 22:30 11,8 C 11,8 C 11,9 C 57 % 1006,6 hPa 0,0 l/m 0,0 km/h (0 Bft) N 0 0 min 0,000 mm 0 W/m 3,6 C 11,8 C 0,0 km/h (0 Bft) 98 %
30.04.2017 22:40 11,6 C 11,6 C 11,8 C 56 % 1006,5 hPa 0,0 l/m 0,0 km/h (0 Bft) N-NO 22 0 min 0,000 mm 0 W/m 3,1 C 11,6 C 1,6 km/h (1 Bft) 97 %
30.04.2017 22:50 11,5 C 11,5 C 11,6 C 57 % 1006,6 hPa 0,0 l/m 0,0 km/h (0 Bft) NO 45 0 min 0,000 mm 0 W/m 3,3 C 11,5 C 8,0 km/h (2 Bft) 98 %
30.04.2017 23:00 11,4 C 11,4 C 11,5 C 57 % 1006,6 hPa 0,0 l/m 0,0 km/h (0 Bft) NO 45 0 min 0,025 mm 0 W/m 3,2 C 11,4 C 6,4 km/h (2 Bft) 97 %
30.04.2017 23:10 11,3 C 11,3 C 11,4 C 57 % 1006,5 hPa 0,0 l/m 0,0 km/h (0 Bft) NO 45 0 min 0,000 mm 0 W/m 3,1 C 11,3 C 8,0 km/h (2 Bft) 97 %
30.04.2017 23:20 11,3 C 11,3 C 11,3 C 57 % 1006,3 hPa 0,0 l/m 0,0 km/h (0 Bft) O 90 0 min 0,000 mm 0 W/m 3,1 C 11,3 C 9,7 km/h (2 Bft) 97 %
30.04.2017 23:30 11,3 C 11,3 C 11,3 C 57 % 1006,2 hPa 0,0 l/m 1,6 km/h (1 Bft) O-NO 67 0 min 0,000 mm 0 W/m 3,1 C 11,3 C 11,3 km/h (2 Bft) 98 %
30.04.2017 23:40 11,2 C 11,2 C 11,3 C 57 % 1006,1 hPa 0,0 l/m 0,0 km/h (0 Bft) NO 45 0 min 0,000 mm 0 W/m 3,0 C 11,2 C 6,4 km/h (2 Bft) 98 %
30.04.2017 23:50 11,1 C 11,1 C 11,2 C 58 % 1006,2 hPa 0,0 l/m 0,0 km/h (0 Bft) N 0 0 min 0,000 mm 0 W/m 3,2 C 11,1 C 0,0 km/h (0 Bft) 88 %
_ Min-Zeit 05:50 05:50 06:00 17:50 23:40 - 00:00 - - - - - 05:40 05:50 01:40 01:30
Minimum _ 1,7 C 1,7 C 1,7 C 38 % 1006,1 hPa - 0,0 km/h (0 Bft) - - - - - 0,0 C 1,7 C 0,0 km/h (0 Bft) 87 %
_ Max-Zeit 17:30 17:20 17:30 06:30 00:00 00:00 14:10 - - 12:50 14:10 13:20 10:00 17:40 15:00 00:00
Maximum _ 17,4 C 17,3 C 17,4 C 90 % 1015,3 hPa 0,0 l/m 13,2 km/h
O-SO (3 Bft)
- - 20 min 0,533 mm 902 W/m 5,0 C 17,4 C 37,0 km/h
SO (5 Bft)
100 %
Durchschnitt _ 10,2 C 10,1 C 10,3 C 62 % 1011,4 hPa #0,0 l/m 3,1 km/h (1 Bft) O-SO - #6:40 h #3,301 mm 362 W/m 2,5 C 9,9 C 12,9 km/h (3 Bft) 98 %
PRIVATE WETTERSTATION BILLIGHEIM-ALLFELD - www.neckar-odenwald-wetter.de - Holger Sonntag